TimeCDT,TemperatureF,Dew PointF,Humidity,Sea Level PressureIn,VisibilityMPH,Wind Direction,Wind SpeedMPH,Gust SpeedMPH,PrecipitationIn,Events,Conditions,WindDirDegrees,DateUTC
12:51 AM,53.1,46.0,77,30.00,10.0,West,3.5,-,N/A,,Clear,260,2012-10-31 05:51:00
1:51 AM,50.0,45.0,83,30.00,10.0,WSW,4.6,-,N/A,,Clear,250,2012-10-31 06:51:00
2:51 AM,48.9,44.1,83,30.00,10.0,WSW,3.5,-,N/A,,Clear,250,2012-10-31 07:51:00
3:51 AM,46.9,42.1,83,30.00,10.0,West,3.5,-,N/A,,Clear,270,2012-10-31 08:51:00
4:51 AM,45.0,42.1,90,30.00,10.0,Calm,Calm,-,N/A,,Clear,0,2012-10-31 09:51:00
5:51 AM,43.0,39.9,89,30.01,10.0,SW,3.5,-,N/A,,Clear,220,2012-10-31 10:51:00
6:51 AM,44.1,41.0,89,30.04,10.0,West,4.6,-,N/A,,Clear,260,2012-10-31 11:51:00
7:51 AM,42.1,39.9,92,30.06,10.0,SW,5.8,-,N/A,,Clear,220,2012-10-31 12:51:00
8:51 AM,46.9,44.1,90,30.09,10.0,Calm,Calm,-,N/A,,Clear,0,2012-10-31 13:51:00
9:51 AM,57.0,48.0,72,30.09,10.0,WNW,3.5,-,N/A,,Clear,290,2012-10-31 14:51:00
10:51 AM,64.9,52.0,63,30.08,10.0,West,8.1,-,N/A,,Clear,260,2012-10-31 15:51:00
11:51 AM,72.0,54.0,53,30.08,10.0,Calm,Calm,-,N/A,,Clear,0,2012-10-31 16:51:00
12:51 PM,77.0,52.0,42,30.06,10.0,Variable,3.5,-,N/A,,Clear,0,2012-10-31 17:51:00
1:51 PM,78.1,48.0,35,30.03,10.0,Calm,Calm,-,N/A,,Clear,0,2012-10-31 18:51:00
2:51 PM,81.0,48.0,31,30.00,10.0,Calm,Calm,-,N/A,,Clear,0,2012-10-31 19:51:00
3:51 PM,82.9,46.9,28,29.99,10.0,Calm,Calm,-,N/A,,Clear,0,2012-10-31 20:51:00
4:51 PM,82.9,46.9,28,29.98,10.0,Variable,4.6,-,N/A,,Clear,0,2012-10-31 21:51:00
5:51 PM,80.1,50.0,35,29.99,10.0,ENE,4.6,-,N/A,,Clear,70,2012-10-31 22:51:00
6:51 PM,73.9,46.9,38,30.00,10.0,ENE,4.6,-,N/A,,Clear,70,2012-10-31 23:51:00
7:51 PM,66.0,46.0,48,30.02,10.0,East,3.5,-,N/A,,Clear,100,2012-11-01 00:51:00
8:51 PM,62.1,45.0,53,30.04,10.0,SSE,3.5,-,N/A,,Clear,150,2012-11-01 01:51:00
9:51 PM,60.1,46.9,62,30.04,10.0,Calm,Calm,-,N/A,,Clear,0,2012-11-01 02:51:00
10:51 PM,57.9,46.0,65,30.04,10.0,Calm,Calm,-,N/A,,Clear,0,2012-11-01 03:51:00
11:51 PM,55.9,46.0,69,30.05,10.0,Calm,Calm,-,N/A,,Clear,0,2012-11-01 04:51:00